Time,TemperatureF,DewpointF,PressureIn,WindDirection,WindDirectionDegrees,WindSpeedMPH,WindSpeedGustMPH,Humidity,HourlyPrecipIn,Conditions,Clouds,dailyrainin,SoftwareType,DateUTC
2013-05-02 00:00:00,57.3,53.5,30.28,NNW,337,1.0,8.0,87,0.00,,---,0.00,VWS V14.01,2013-05-02 04:00:00,
2013-05-02 00:01:00,57.3,53.5,30.28,NNW,337,0.0,8.0,87,0.00,,---,0.00,VWS V14.01,2013-05-02 04:01:00,
2013-05-02 00:06:00,57.3,53.5,30.28,SW,223,0.0,4.0,87,0.00,,---,0.00,VWS V14.01,2013-05-02 04:06:00,
2013-05-02 00:11:00,57.3,53.5,30.28,NW,324,0.0,9.0,87,0.00,,---,0.00,VWS V14.01,2013-05-02 04:11:00,
2013-05-02 00:16:00,57.3,53.5,30.28,WSW,237,0.0,0.0,87,0.00,,---,0.00,VWS V14.01,2013-05-02 04:16:00,
2013-05-02 00:21:00,57.3,53.5,30.27,North,6,1.0,7.0,87,0.00,,---,0.00,VWS V14.01,2013-05-02 04:21:00,
2013-05-02 00:26:00,57.3,53.5,30.28,NNW,341,0.0,7.0,87,0.00,,---,0.00,VWS V14.01,2013-05-02 04:26:00,
2013-05-02 00:31:00,57.3,53.5,30.28,NNW,341,0.0,0.0,87,0.00,,---,0.00,VWS V14.01,2013-05-02 04:31:00,
2013-05-02 00:36:00,57.3,53.5,30.28,South,184,1.0,2.0,87,0.00,,---,0.00,VWS V14.01,2013-05-02 04:36:00,
2013-05-02 00:41:00,57.3,53.5,30.28,SW,221,0.0,6.0,87,0.00,,---,0.00,VWS V14.01,2013-05-02 04:41:00,
2013-05-02 00:46:00,57.3,53.5,30.28,NE,46,0.0,0.0,87,0.00,,---,0.00,VWS V14.01,2013-05-02 04:46:00,
2013-05-02 00:51:00,57.3,53.5,30.28,NNW,328,4.0,4.0,87,0.00,,---,0.00,VWS V14.01,2013-05-02 04:51:00,
2013-05-02 00:56:00,57.3,53.5,30.27,NW,324,0.0,10.0,87,0.00,,---,0.00,VWS V14.01,2013-05-02 04:56:00,
2013-05-02 01:01:00,57.3,53.5,30.27,NNW,327,0.0,0.0,87,0.00,,---,0.00,VWS V14.01,2013-05-02 05:01:00,
2013-05-02 01:06:00,57.3,53.5,30.27,SW,224,0.0,1.0,87,0.00,,---,0.00,VWS V14.01,2013-05-02 05:06:00,
2013-05-02 01:11:00,57.3,53.5,30.27,WSW,252,0.0,4.0,87,0.00,,---,0.00,VWS V14.01,2013-05-02 05:11:00,
2013-05-02 01:16:00,57.3,53.5,30.27,West,262,0.0,0.0,87,0.00,,---,0.00,VWS V14.01,2013-05-02 05:16:00,
2013-05-02 01:21:00,57.3,53.5,30.27,West,272,0.0,3.0,87,0.00,,---,0.00,VWS V14.01,2013-05-02 05:21:00,
2013-05-02 01:26:00,57.3,53.5,30.27,West,272,0.0,3.0,87,0.00,,---,0.00,VWS V14.01,2013-05-02 05:26:00,
2013-05-02 01:31:00,57.3,53.5,30.27,West,272,0.0,1.0,87,0.00,,---,0.00,VWS V14.01,2013-05-02 05:31:00,
2013-05-02 01:36:00,57.3,53.5,30.27,SSE,148,0.0,2.0,87,0.00,,---,0.00,VWS V14.01,2013-05-02 05:36:00,
2013-05-02 01:41:00,57.3,53.5,30.27,WNW,300,0.0,4.0,87,0.00,,---,0.00,VWS V14.01,2013-05-02 05:41:00,
2013-05-02 01:46:00,57.3,53.5,30.27,WNW,295,0.0,0.0,87,0.00,,---,0.00,VWS V14.01,2013-05-02 05:46:00,
2013-05-02 01:51:00,57.3,53.5,30.26,WSW,247,0.0,1.0,87,0.00,,---,0.00,VWS V14.01,2013-05-02 05:51:00,
2013-05-02 01:56:00,57.3,53.5,30.26,SE,141,3.0,5.0,87,0.00,,---,0.00,VWS V14.01,2013-05-02 05:56:00,
2013-05-02 02:01:00,57.3,53.5,30.26,NNW,334,1.0,1.0,87,0.00,,---,0.00,VWS V14.01,2013-05-02 06:01:00,
2013-05-02 02:06:00,57.3,53.5,30.26,SSW,199,1.0,4.0,87,0.00,,---,0.00,VWS V14.01,2013-05-02 06:06:00,
2013-05-02 02:11:00,57.3,53.5,30.26,SSW,197,0.0,4.0,87,0.00,,---,0.00,VWS V14.01,2013-05-02 06:11:00,
2013-05-02 02:16:00,57.3,53.8,30.26,NNW,339,0.0,0.0,88,0.00,,---,0.00,VWS V14.01,2013-05-02 06:16:00,
2013-05-02 02:21:00,57.3,53.8,30.26,North,4,0.0,3.0,88,0.00,,---,0.00,VWS V14.01,2013-05-02 06:21:00,
2013-05-02 02:26:00,57.3,53.8,30.26,West,269,0.0,7.0,88,0.00,,---,0.00,VWS V14.01,2013-05-02 06:26:00,
2013-05-02 02:31:00,57.2,53.7,30.26,WSW,258,0.0,0.0,88,0.00,,---,0.00,VWS V14.01,2013-05-02 06:31:00,
2013-05-02 02:36:00,57.2,53.7,30.26,SSW,213,0.0,2.0,88,0.00,,---,0.00,VWS V14.01,2013-05-02 06:36:00,
2013-05-02 02:41:00,57.2,53.7,30.26,WNW,303,0.0,3.0,88,0.00,,---,0.00,VWS V14.01,2013-05-02 06:41:00,
2013-05-02 02:46:00,57.2,53.7,30.25,NW,309,0.0,0.0,88,0.00,,---,0.00,VWS V14.01,2013-05-02 06:46:00,
2013-05-02 02:51:00,57.2,53.7,30.25,NNW,334,1.0,2.0,88,0.00,,---,0.00,VWS V14.01,2013-05-02 06:51:00,
2013-05-02 02:56:00,57.2,53.7,30.25,NNW,336,0.0,2.0,88,0.00,,---,0.00,VWS V14.01,2013-05-02 06:56:00,
2013-05-02 03:01:00,57.2,53.7,30.25,West,273,0.0,0.0,88,0.00,,---,0.00,VWS V14.01,2013-05-02 07:01:00,
2013-05-02 03:06:00,57.2,53.7,30.25,NE,51,0.0,2.0,88,0.00,,---,0.00,VWS V14.01,2013-05-02 07:06:00,
2013-05-02 03:11:00,57.2,53.7,30.25,NE,51,0.0,2.0,88,0.00,,---,0.00,VWS V14.01,2013-05-02 07:11:00,
2013-05-02 03:16:00,57.0,53.5,30.25,ENE,71,0.0,0.0,88,0.00,,---,0.00,VWS V14.01,2013-05-02 07:16:00,
2013-05-02 03:21:00,57.0,53.2,30.25,ENE,71,0.0,1.0,87,0.00,,---,0.00,VWS V14.01,2013-05-02 07:21:00,
2013-05-02 03:26:00,57.0,53.2,30.25,NW,304,0.0,3.0,87,0.00,,---,0.00,VWS V14.01,2013-05-02 07:26:00,
2013-05-02 03:31:00,57.0,53.2,30.25,South,187,0.0,0.0,87,0.00,,---,0.00,VWS V14.01,2013-05-02 07:31:00,
2013-05-02 03:36:00,57.0,53.2,30.25,WNW,293,0.0,2.0,87,0.00,,---,0.00,VWS V14.01,2013-05-02 07:36:00,
2013-05-02 03:41:00,57.0,53.2,30.24,West,270,0.0,2.0,87,0.00,,---,0.00,VWS V14.01,2013-05-02 07:41:00,
2013-05-02 03:46:00,56.9,53.1,30.24,SSW,192,0.0,0.0,87,0.00,,---,0.00,VWS V14.01,2013-05-02 07:46:00,
2013-05-02 03:51:00,56.9,53.1,30.24,NW,314,0.0,4.0,87,0.00,,---,0.00,VWS V14.01,2013-05-02 07:51:00,
2013-05-02 03:56:00,56.9,53.1,30.24,South,186,0.0,4.0,87,0.00,,---,0.00,VWS V14.01,2013-05-02 07:56:00,
2013-05-02 04:01:00,56.9,53.1,30.25,North,6,0.0,0.0,87,0.00,,---,0.00,VWS V14.01,2013-05-02 08:01:00,
2013-05-02 04:06:00,56.7,52.9,30.25,NNW,340,0.0,6.0,87,0.00,,---,0.00,VWS V14.01,2013-05-02 08:06:00,
2013-05-02 04:11:00,56.7,52.9,30.25,North,349,1.0,6.0,87,0.00,,---,0.00,VWS V14.01,2013-05-02 08:11:00,
2013-05-02 04:16:00,56.7,52.9,30.25,South,189,0.0,3.0,87,0.00,,---,0.00,VWS V14.01,2013-05-02 08:16:00,
2013-05-02 04:21:00,56.6,52.8,30.24,SW,220,0.0,3.0,87,0.00,,---,0.00,VWS V14.01,2013-05-02 08:21:00,
2013-05-02 04:26:00,56.6,52.5,30.24,SW,216,0.0,3.0,86,0.00,,---,0.00,VWS V14.01,2013-05-02 08:26:00,
2013-05-02 04:31:00,56.5,52.4,30.25,SW,219,0.0,0.0,86,0.00,,---,0.00,VWS V14.01,2013-05-02 08:31:00,
2013-05-02 04:36:00,56.5,52.4,30.25,NW,318,1.0,5.0,86,0.00,,---,0.00,VWS V14.01,2013-05-02 08:36:00,
2013-05-02 04:41:00,56.5,52.4,30.25,SSE,160,0.0,6.0,86,0.00,,---,0.00,VWS V14.01,2013-05-02 08:41:00,
2013-05-02 04:46:00,56.5,52.4,30.25,SW,228,0.0,0.0,86,0.00,,---,0.00,VWS V14.01,2013-05-02 08:46:00,
2013-05-02 04:51:00,56.3,52.2,30.25,North,349,0.0,4.0,86,0.00,,---,0.00,VWS V14.01,2013-05-02 08:51:00,
2013-05-02 04:56:00,56.3,52.2,30.25,NW,322,0.0,7.0,86,0.00,,---,0.00,VWS V14.01,2013-05-02 08:56:00,
2013-05-02 05:01:00,56.3,52.5,30.25,NW,322,0.0,0.0,87,0.00,,---,0.00,VWS V14.01,2013-05-02 09:01:00,
2013-05-02 05:06:00,56.2,52.1,30.25,South,188,0.0,3.0,86,0.00,,---,0.00,VWS V14.01,2013-05-02 09:06:00,
2013-05-02 05:11:00,56.2,52.1,30.25,NNW,334,0.0,3.0,86,0.00,,---,0.00,VWS V14.01,2013-05-02 09:11:00,
2013-05-02 05:16:00,56.0,51.9,30.25,NNE,27,0.0,0.0,86,0.00,,---,0.00,VWS V14.01,2013-05-02 09:16:00,
2013-05-02 05:21:00,55.9,51.8,30.25,NE,56,0.0,3.0,86,0.00,,---,0.00,VWS V14.01,2013-05-02 09:21:00,
2013-05-02 05:26:00,55.7,51.6,30.25,NNE,20,0.0,3.0,86,0.00,,---,0.00,VWS V14.01,2013-05-02 09:26:00,
2013-05-02 05:31:00,55.7,51.6,30.25,NNE,20,0.0,0.0,86,0.00,,---,0.00,VWS V14.01,2013-05-02 09:31:00,
2013-05-02 05:36:00,55.6,51.2,30.25,NNE,20,0.0,3.0,85,0.00,,---,0.00,VWS V14.01,2013-05-02 09:36:00,
2013-05-02 05:41:00,55.6,51.2,30.25,NNW,345,0.0,3.0,85,0.00,,---,0.00,VWS V14.01,2013-05-02 09:41:00,
2013-05-02 05:46:00,55.4,51.0,30.25,SSE,162,0.0,0.0,85,0.00,,---,0.00,VWS V14.01,2013-05-02 09:46:00,
2013-05-02 05:51:00,55.4,51.0,30.25,SSE,162,0.0,0.0,85,0.00,,---,0.00,VWS V14.01,2013-05-02 09:51:00,
2013-05-02 05:56:00,55.3,50.9,30.25,SSW,212,0.0,1.0,85,0.00,,---,0.00,VWS V14.01,2013-05-02 09:56:00,
2013-05-02 06:01:00,55.3,50.6,30.25,SW,232,0.0,0.0,84,0.00,,---,0.00,VWS V14.01,2013-05-02 10:01:00,
2013-05-02 06:06:00,55.1,50.4,30.25,ENE,60,0.0,3.0,84,0.00,,---,0.00,VWS V14.01,2013-05-02 10:06:00,
2013-05-02 06:11:00,55.1,50.4,30.25,ENE,60,0.0,3.0,84,0.00,,---,0.00,VWS V14.01,2013-05-02 10:11:00,
2013-05-02 06:16:00,55.0,50.3,30.25,SSW,193,0.0,0.0,84,0.00,,---,0.00,VWS V14.01,2013-05-02 10:16:00,
2013-05-02 06:21:00,55.0,50.3,30.26,SSW,193,0.0,2.0,84,0.00,,---,0.00,VWS V14.01,2013-05-02 10:21:00,
2013-05-02 06:26:00,55.0,50.3,30.26,WSW,255,0.0,3.0,84,0.00,,---,0.00,VWS V14.01,2013-05-02 10:26:00,
2013-05-02 06:31:00,55.0,50.3,30.26,North,353,0.0,0.0,84,0.00,,---,0.00,VWS V14.01,2013-05-02 10:31:00,
2013-05-02 06:36:00,55.0,50.3,30.26,North,353,0.0,2.0,84,0.00,,---,0.00,VWS V14.01,2013-05-02 10:36:00,
2013-05-02 06:41:00,54.8,50.1,30.27,NNW,333,2.0,7.0,84,0.00,,---,0.00,VWS V14.01,2013-05-02 10:41:00,
2013-05-02 06:46:00,54.8,50.1,30.27,SW,226,0.0,0.0,84,0.00,,---,0.00,VWS V14.01,2013-05-02 10:46:00,
2013-05-02 06:51:00,54.8,50.1,30.26,SW,226,0.0,2.0,84,0.00,,---,0.00,VWS V14.01,2013-05-02 10:51:00,
2013-05-02 06:56:00,54.8,50.1,30.26,NNW,340,1.0,4.0,84,0.00,,---,0.00,VWS V14.01,2013-05-02 10:56:00,
2013-05-02 07:01:00,54.8,50.1,30.27,NNW,340,0.0,0.0,84,0.00,,---,0.00,VWS V14.01,2013-05-02 11:01:00,
2013-05-02 07:06:00,54.7,50.0,30.27,West,278,0.0,1.0,84,0.00,,---,0.00,VWS V14.01,2013-05-02 11:06:00,
2013-05-02 07:11:00,54.7,50.0,30.27,West,278,0.0,1.0,84,0.00,,---,0.00,VWS V14.01,2013-05-02 11:11:00,
2013-05-02 07:16:00,54.8,50.1,30.27,North,351,1.0,1.0,84,0.00,,---,0.00,VWS V14.01,2013-05-02 11:16:00,
2013-05-02 07:21:00,54.8,50.1,30.27,ENE,60,0.0,5.0,84,0.00,,---,0.00,VWS V14.01,2013-05-02 11:21:00,
2013-05-02 07:26:00,54.8,50.1,30.27,SSW,201,1.0,5.0,84,0.00,,---,0.00,VWS V14.01,2013-05-02 11:26:00,
2013-05-02 07:31:00,54.8,50.1,30.27,NNW,327,1.0,4.0,84,0.00,,---,0.00,VWS V14.01,2013-05-02 11:31:00,
2013-05-02 07:36:00,54.8,50.4,30.27,NNW,327,0.0,4.0,85,0.00,,---,0.00,VWS V14.01,2013-05-02 11:36:00,
2013-05-02 07:41:00,55.0,50.6,30.28,NW,317,0.0,6.0,85,0.00,,---,0.00,VWS V14.01,2013-05-02 11:41:00,
2013-05-02 07:46:00,54.8,50.1,30.28,WSW,240,0.0,2.0,84,0.00,,---,0.00,VWS V14.01,2013-05-02 11:46:00,
2013-05-02 07:51:00,54.8,50.1,30.28,SSE,150,0.0,6.0,84,0.00,,---,0.00,VWS V14.01,2013-05-02 11:51:00,
2013-05-02 07:56:00,54.8,50.1,30.28,SSE,149,0.0,6.0,84,0.00,,---,0.00,VWS V14.01,2013-05-02 11:56:00,
2013-05-02 08:01:00,54.8,50.1,30.29,SSE,149,0.0,0.0,84,0.00,,---,0.00,VWS V14.01,2013-05-02 12:01:00,
2013-05-02 08:06:00,54.8,50.1,30.29,WSW,243,0.0,2.0,84,0.00,,---,0.00,VWS V14.01,2013-05-02 12:06:00,
2013-05-02 08:11:00,55.0,50.3,30.29,NW,325,0.0,6.0,84,0.00,,---,0.00,VWS V14.01,2013-05-02 12:11:00,
2013-05-02 08:16:00,55.0,50.3,30.29,WNW,292,0.0,0.0,84,0.00,,---,0.00,VWS V14.01,2013-05-02 12:16:00,
2013-05-02 08:21:00,55.0,49.9,30.29,SW,235,0.0,1.0,83,0.00,,---,0.00,VWS V14.01,2013-05-02 12:21:00,
2013-05-02 08:26:00,55.0,50.3,30.30,South,185,0.0,2.0,84,0.00,,---,0.00,VWS V14.01,2013-05-02 12:26:00,
2013-05-02 08:31:00,55.1,50.0,30.30,SSW,208,0.0,0.0,83,0.00,,---,0.00,VWS V14.01,2013-05-02 12:31:00,
2013-05-02 08:36:00,55.1,50.0,30.30,WSW,246,0.0,2.0,83,0.00,,---,0.00,VWS V14.01,2013-05-02 12:36:00,
2013-05-02 08:41:00,55.1,50.4,30.30,NW,326,3.0,4.0,84,0.00,,---,0.00,VWS V14.01,2013-05-02 12:41:00,
2013-05-02 08:46:00,55.3,50.6,30.30,WSW,243,0.0,0.0,84,0.00,,---,0.00,VWS V14.01,2013-05-02 12:46:00,
2013-05-02 08:51:00,55.3,50.6,30.30,WSW,243,0.0,1.0,84,0.00,,---,0.00,VWS V14.01,2013-05-02 12:51:00,
2013-05-02 08:56:00,55.4,50.7,30.30,NW,321,1.0,3.0,84,0.00,,---,0.00,VWS V14.01,2013-05-02 12:56:00,
2013-05-02 09:01:00,55.6,50.8,30.30,WSW,256,1.0,1.0,84,0.00,,---,0.00,VWS V14.01,2013-05-02 13:01:00,
2013-05-02 09:06:00,55.7,51.0,30.30,North,7,5.0,5.0,84,0.00,,---,0.00,VWS V14.01,2013-05-02 13:06:00,
2013-05-02 09:11:00,55.7,51.0,30.30,NNW,347,0.0,10.0,84,0.00,,---,0.00,VWS V14.01,2013-05-02 13:11:00,
2013-05-02 09:16:00,55.9,51.1,30.30,NNW,333,0.0,0.0,84,0.00,,---,0.00,VWS V14.01,2013-05-02 13:16:00,
2013-05-02 09:21:00,55.9,50.8,30.30,NNW,334,0.0,3.0,83,0.00,,---,0.00,VWS V14.01,2013-05-02 13:21:00,
2013-05-02 09:26:00,56.0,51.2,30.30,NNW,334,0.0,3.0,84,0.00,,---,0.00,VWS V14.01,2013-05-02 13:26:00,
2013-05-02 09:31:00,56.2,51.4,30.30,WNW,289,0.0,0.0,84,0.00,,---,0.00,VWS V14.01,2013-05-02 13:31:00,
2013-05-02 09:36:00,56.2,51.4,30.30,WNW,295,0.0,3.0,84,0.00,,---,0.00,VWS V14.01,2013-05-02 13:36:00,
2013-05-02 09:41:00,56.3,51.5,30.30,West,281,1.0,3.0,84,0.00,,---,0.00,VWS V14.01,2013-05-02 13:41:00,
2013-05-02 09:46:00,56.5,51.7,30.29,NNW,341,2.0,2.0,84,0.00,,---,0.00,VWS V14.01,2013-05-02 13:46:00,
2013-05-02 09:51:00,56.6,51.8,30.29,NNW,343,1.0,5.0,84,0.00,,---,0.00,VWS V14.01,2013-05-02 13:51:00,
2013-05-02 09:56:00,56.7,51.9,30.29,North,349,0.0,6.0,84,0.00,,---,0.00,VWS V14.01,2013-05-02 13:56:00,
2013-05-02 10:01:00,56.9,52.1,30.29,WNW,282,0.0,6.0,84,0.00,,---,0.00,VWS V14.01,2013-05-02 14:01:00,
2013-05-02 10:06:00,56.9,51.8,30.29,West,268,0.0,2.0,83,0.00,,---,0.00,VWS V14.01,2013-05-02 14:06:00,
2013-05-02 10:11:00,57.0,51.9,30.29,SSW,212,0.0,2.0,83,0.00,,---,0.00,VWS V14.01,2013-05-02 14:11:00,
2013-05-02 10:16:00,57.0,51.9,30.29,SSW,212,0.0,2.0,83,0.00,,---,0.00,VWS V14.01,2013-05-02 14:16:00,
2013-05-02 10:21:00,57.2,52.1,30.30,SSW,201,0.0,1.0,83,0.00,,---,0.00,VWS V14.01,2013-05-02 14:21:00,
2013-05-02 10:26:00,57.2,52.1,30.30,WSW,242,1.0,2.0,83,0.00,,---,0.00,VWS V14.01,2013-05-02 14:26:00,
2013-05-02 10:31:00,57.3,52.2,30.30,NW,314,0.0,3.0,83,0.00,,---,0.00,VWS V14.01,2013-05-02 14:31:00,
2013-05-02 10:36:00,57.3,52.2,30.30,NNW,343,4.0,6.0,83,0.00,,---,0.00,VWS V14.01,2013-05-02 14:36:00,
2013-05-02 10:41:00,57.5,52.4,30.30,WNW,284,0.0,6.0,83,0.00,,---,0.00,VWS V14.01,2013-05-02 14:41:00,
2013-05-02 10:46:00,57.5,52.4,30.30,SW,230,0.0,6.0,83,0.00,,---,0.00,VWS V14.01,2013-05-02 14:46:00,
2013-05-02 10:51:00,57.5,52.4,30.30,North,355,0.0,6.0,83,0.00,,---,0.00,VWS V14.01,2013-05-02 14:51:00,
2013-05-02 10:56:00,57.6,52.5,30.30,North,355,0.0,6.0,83,0.00,,---,0.00,VWS V14.01,2013-05-02 14:56:00,
2013-05-02 11:01:00,57.6,52.5,30.30,NNW,341,5.0,6.0,83,0.00,,---,0.00,VWS V14.01,2013-05-02 15:01:00,
2013-05-02 11:06:00,57.8,52.7,30.30,NNW,330,0.0,7.0,83,0.00,,---,0.00,VWS V14.01,2013-05-02 15:06:00,
2013-05-02 11:11:00,58.0,52.9,30.30,North,359,2.0,7.0,83,0.00,,---,0.00,VWS V14.01,2013-05-02 15:11:00,
2013-05-02 11:16:00,58.1,53.0,30.30,North,359,0.0,7.0,83,0.00,,---,0.00,VWS V14.01,2013-05-02 15:16:00,
2013-05-02 11:21:00,58.3,53.2,30.30,North,355,1.0,6.0,83,0.00,,---,0.00,VWS V14.01,2013-05-02 15:21:00,
2013-05-02 11:26:00,58.3,53.2,30.30,NW,319,2.0,7.0,83,0.00,,---,0.00,VWS V14.01,2013-05-02 15:26:00,
2013-05-02 11:31:00,58.4,53.3,30.30,NNW,337,2.0,9.0,83,0.00,,---,0.00,VWS V14.01,2013-05-02 15:31:00,
2013-05-02 11:36:00,58.4,52.9,30.31,NNE,31,0.0,4.0,82,0.00,,---,0.00,VWS V14.01,2013-05-02 15:36:00,
2013-05-02 11:41:00,58.4,52.9,30.31,ESE,103,2.0,7.0,82,0.00,,---,0.00,VWS V14.01,2013-05-02 15:41:00,
2013-05-02 11:46:00,58.4,52.9,30.30,South,174,0.0,7.0,82,0.00,,---,0.00,VWS V14.01,2013-05-02 15:46:00,
2013-05-02 11:51:00,58.4,52.9,30.31,SSW,211,0.0,2.0,82,0.00,,---,0.00,VWS V14.01,2013-05-02 15:51:00,
2013-05-02 11:56:00,58.4,52.9,30.31,SSW,211,0.0,2.0,82,0.00,,---,0.00,VWS V14.01,2013-05-02 15:56:00,
2013-05-02 12:01:00,58.4,52.9,30.31,SSW,211,0.0,2.0,82,0.00,,---,0.00,VWS V14.01,2013-05-02 16:01:00,
2013-05-02 12:06:00,58.4,53.3,30.31,SSW,211,0.0,1.0,83,0.00,,---,0.00,VWS V14.01,2013-05-02 16:06:00,
2013-05-02 12:11:00,58.4,53.3,30.31,SW,233,0.0,2.0,83,0.00,,---,0.00,VWS V14.01,2013-05-02 16:11:00,
2013-05-02 12:16:00,58.4,53.3,30.31,West,268,0.0,3.0,83,0.00,,---,0.00,VWS V14.01,2013-05-02 16:16:00,
2013-05-02 12:21:00,58.4,53.3,30.31,West,268,0.0,1.0,83,0.00,,---,0.00,VWS V14.01,2013-05-02 16:21:00,
2013-05-02 12:26:00,58.6,53.5,30.31,West,268,0.0,1.0,83,0.00,,---,0.00,VWS V14.01,2013-05-02 16:26:00,
2013-05-02 12:31:00,58.6,53.5,30.31,West,268,0.0,1.0,83,0.00,,---,0.00,VWS V14.01,2013-05-02 16:31:00,
2013-05-02 12:36:00,58.6,53.5,30.31,West,268,0.0,0.0,83,0.00,,---,0.00,VWS V14.01,2013-05-02 16:36:00,
2013-05-02 12:41:00,58.6,53.5,30.31,West,270,0.0,2.0,83,0.00,,---,0.00,VWS V14.01,2013-05-02 16:41:00,
2013-05-02 12:46:00,58.7,53.6,30.30,West,270,0.0,2.0,83,0.00,,---,0.00,VWS V14.01,2013-05-02 16:46:00,
2013-05-02 12:51:00,58.7,53.6,30.30,NNW,328,0.0,5.0,83,0.00,,---,0.00,VWS V14.01,2013-05-02 16:51:00,
2013-05-02 12:56:00,58.9,53.8,30.30,WNW,301,2.0,5.0,83,0.00,,---,0.00,VWS V14.01,2013-05-02 16:56:00,
2013-05-02 13:01:00,58.9,53.8,30.30,North,1,0.0,5.0,83,0.00,,---,0.00,VWS V14.01,2013-05-02 17:01:00,
2013-05-02 13:06:00,59.0,53.5,30.30,North,1,0.0,1.0,82,0.00,,---,0.00,VWS V14.01,2013-05-02 17:06:00,
2013-05-02 13:11:00,59.2,53.7,30.30,NW,324,0.0,3.0,82,0.00,,---,0.00,VWS V14.01,2013-05-02 17:11:00,
2013-05-02 13:16:00,59.3,53.8,30.30,NNW,336,0.0,4.0,82,0.00,,---,0.00,VWS V14.01,2013-05-02 17:16:00,
2013-05-02 13:21:00,59.3,53.5,30.30,North,4,0.0,4.0,81,0.00,,---,0.00,VWS V14.01,2013-05-02 17:21:00,
2013-05-02 13:26:00,59.5,53.7,30.30,North,4,0.0,4.0,81,0.00,,---,0.00,VWS V14.01,2013-05-02 17:26:00,
2013-05-02 13:31:00,59.8,54.0,30.30,North,351,0.0,4.0,81,0.00,,---,0.00,VWS V14.01,2013-05-02 17:31:00,
2013-05-02 13:36:00,59.8,54.0,30.30,NNE,16,0.0,3.0,81,0.00,,---,0.00,VWS V14.01,2013-05-02 17:36:00,
2013-05-02 13:41:00,59.9,54.1,30.30,WNW,287,1.0,5.0,81,0.00,,---,0.00,VWS V14.01,2013-05-02 17:41:00,
2013-05-02 13:46:00,59.9,53.7,30.30,SSE,162,0.0,5.0,80,0.00,,---,0.00,VWS V14.01,2013-05-02 17:46:00,
2013-05-02 13:51:00,59.9,53.7,30.30,SW,214,0.0,1.0,80,0.00,,---,0.00,VWS V14.01,2013-05-02 17:51:00,
2013-05-02 13:56:00,60.1,53.9,30.29,WSW,237,1.0,2.0,80,0.00,,---,0.00,VWS V14.01,2013-05-02 17:56:00,
2013-05-02 14:01:00,60.4,54.2,30.29,WSW,237,1.0,2.0,80,0.00,,---,0.00,VWS V14.01,2013-05-02 18:01:00,
2013-05-02 14:06:00,60.4,54.2,30.29,North,350,2.0,5.0,80,0.00,,---,0.00,VWS V14.01,2013-05-02 18:06:00,
2013-05-02 14:11:00,60.4,53.9,30.29,West,262,2.0,5.0,79,0.00,,---,0.00,VWS V14.01,2013-05-02 18:11:00,
2013-05-02 14:16:00,60.5,54.3,30.29,NW,326,0.0,5.0,80,0.00,,---,0.00,VWS V14.01,2013-05-02 18:16:00,
2013-05-02 14:21:00,60.7,54.5,30.29,SE,146,0.0,4.0,80,0.00,,---,0.00,VWS V14.01,2013-05-02 18:21:00,
2013-05-02 14:26:00,60.9,54.7,30.29,South,175,0.0,4.0,80,0.00,,---,0.00,VWS V14.01,2013-05-02 18:26:00,
2013-05-02 14:31:00,60.9,54.7,30.29,North,359,0.0,4.0,80,0.00,,---,0.00,VWS V14.01,2013-05-02 18:31:00,
2013-05-02 14:36:00,60.9,54.7,30.29,SSW,208,0.0,3.0,80,0.00,,---,0.00,VWS V14.01,2013-05-02 18:36:00,
2013-05-02 14:41:00,60.9,54.7,30.29,NNW,340,1.0,4.0,80,0.00,,---,0.00,VWS V14.01,2013-05-02 18:41:00,
2013-05-02 14:46:00,60.9,54.7,30.29,NNW,328,0.0,4.0,80,0.00,,---,0.00,VWS V14.01,2013-05-02 18:46:00,
2013-05-02 14:51:00,60.9,54.7,30.29,NNW,343,1.0,4.0,80,0.00,,---,0.00,VWS V14.01,2013-05-02 18:51:00,
2013-05-02 14:56:00,60.9,54.7,30.28,NNW,343,0.0,4.0,80,0.00,,---,0.00,VWS V14.01,2013-05-02 18:56:00,
2013-05-02 15:01:00,60.9,54.7,30.28,NNW,328,0.0,4.0,80,0.00,,---,0.00,VWS V14.01,2013-05-02 19:01:00,
2013-05-02 15:06:00,60.9,54.7,30.28,North,349,3.0,5.0,80,0.00,,---,0.00,VWS V14.01,2013-05-02 19:06:00,
2013-05-02 15:11:00,60.9,54.7,30.28,South,170,0.0,5.0,80,0.00,,---,0.00,VWS V14.01,2013-05-02 19:11:00,
2013-05-02 15:16:00,61.0,54.8,30.28,South,170,0.0,5.0,80,0.00,,---,0.00,VWS V14.01,2013-05-02 19:16:00,
2013-05-02 15:21:00,60.9,54.7,30.28,South,170,0.0,1.0,80,0.00,,---,0.00,VWS V14.01,2013-05-02 19:21:00,
2013-05-02 15:26:00,61.0,54.8,30.28,South,170,0.0,1.0,80,0.00,,---,0.00,VWS V14.01,2013-05-02 19:26:00,
2013-05-02 15:31:00,61.0,54.8,30.28,SW,223,0.0,5.0,80,0.00,,---,0.00,VWS V14.01,2013-05-02 19:31:00,
2013-05-02 15:36:00,61.2,55.0,30.27,NNW,345,3.0,4.0,80,0.00,,---,0.00,VWS V14.01,2013-05-02 19:36:00,
2013-05-02 15:41:00,61.2,54.6,30.27,NNW,343,0.0,4.0,79,0.00,,---,0.00,VWS V14.01,2013-05-02 19:41:00,
2013-05-02 15:46:00,61.2,54.6,30.27,West,264,0.0,4.0,79,0.00,,---,0.00,VWS V14.01,2013-05-02 19:46:00,
2013-05-02 15:51:00,61.2,54.6,30.27,WSW,241,1.0,1.0,79,0.00,,---,0.00,VWS V14.01,2013-05-02 19:51:00,
2013-05-02 15:56:00,61.2,54.6,30.27,WSW,241,0.0,1.0,79,0.00,,---,0.00,VWS V14.01,2013-05-02 19:56:00,
2013-05-02 16:01:00,61.2,54.6,30.27,NNW,337,0.0,4.0,79,0.00,,---,0.00,VWS V14.01,2013-05-02 20:01:00,
2013-05-02 16:06:00,61.2,54.6,30.27,NW,312,0.0,4.0,79,0.00,,---,0.00,VWS V14.01,2013-05-02 20:06:00,
2013-05-02 16:11:00,61.0,54.5,30.26,WNW,286,0.0,4.0,79,0.00,,---,0.00,VWS V14.01,2013-05-02 20:11:00,
2013-05-02 16:16:00,61.0,54.5,30.26,NW,309,3.0,4.0,79,0.00,,---,0.00,VWS V14.01,2013-05-02 20:16:00,
2013-05-02 16:21:00,61.2,54.6,30.26,NNW,347,1.0,4.0,79,0.00,,---,0.00,VWS V14.01,2013-05-02 20:21:00,
2013-05-02 16:25:00,61.3,54.7,30.26,SSE,148,1.0,4.0,79,0.00,,---,0.00,VWS V14.01,2013-05-02 20:25:00,
2013-05-02 16:30:00,61.3,54.7,30.26,WSW,240,0.0,4.0,79,0.00,,---,0.00,VWS V14.01,2013-05-02 20:30:00,
2013-05-02 16:35:00,61.3,54.7,30.26,SW,226,1.0,2.0,79,0.00,,---,0.00,VWS V14.01,2013-05-02 20:35:00,
2013-05-02 16:40:00,61.2,54.6,30.26,WNW,286,0.0,3.0,79,0.00,,---,0.00,VWS V14.01,2013-05-02 20:40:00,
2013-05-02 16:45:00,61.0,54.5,30.26,WNW,283,0.0,3.0,79,0.00,,---,0.00,VWS V14.01,2013-05-02 20:45:00,
2013-05-02 16:50:00,61.0,54.5,30.26,ESE,110,0.0,2.0,79,0.00,,---,0.00,VWS V14.01,2013-05-02 20:50:00,
2013-05-02 16:55:00,61.0,54.8,30.25,SSE,161,0.0,2.0,80,0.00,,---,0.00,VWS V14.01,2013-05-02 20:55:00,
2013-05-02 17:00:00,61.0,54.8,30.25,SSE,161,0.0,2.0,80,0.00,,---,0.00,VWS V14.01,2013-05-02 21:00:00,
2013-05-02 17:05:00,61.0,54.8,30.25,SSE,161,0.0,0.0,80,0.00,,---,0.00,VWS V14.01,2013-05-02 21:05:00,
2013-05-02 17:10:00,61.0,54.8,30.25,SSE,161,0.0,1.0,80,0.00,,---,0.00,VWS V14.01,2013-05-02 21:10:00,
2013-05-02 17:15:00,61.2,55.0,30.25,West,277,1.0,1.0,80,0.00,,---,0.00,VWS V14.01,2013-05-02 21:15:00,
2013-05-02 17:20:00,61.2,54.6,30.25,West,276,0.0,0.0,79,0.00,,---,0.00,VWS V14.01,2013-05-02 21:20:00,
2013-05-02 17:25:00,61.2,54.6,30.25,West,276,0.0,1.0,79,0.00,,---,0.00,VWS V14.01,2013-05-02 21:25:00,
2013-05-02 17:30:00,61.2,54.6,30.24,South,191,0.0,1.0,79,0.00,,---,0.00,VWS V14.01,2013-05-02 21:30:00,
2013-05-02 17:35:00,61.2,54.6,30.24,South,191,0.0,1.0,79,0.00,,---,0.00,VWS V14.01,2013-05-02 21:35:00,
2013-05-02 17:40:00,61.2,55.0,30.24,South,191,1.0,1.0,80,0.00,,---,0.00,VWS V14.01,2013-05-02 21:40:00,
2013-05-02 17:45:00,61.2,55.0,30.24,South,191,0.0,1.0,80,0.00,,---,0.00,VWS V14.01,2013-05-02 21:45:00,
2013-05-02 17:50:00,61.3,55.1,30.24,West,266,0.0,2.0,80,0.00,,---,0.00,VWS V14.01,2013-05-02 21:50:00,
2013-05-02 17:55:00,61.3,55.1,30.24,NW,311,1.0,3.0,80,0.00,,---,0.00,VWS V14.01,2013-05-02 21:55:00,
2013-05-02 18:00:00,61.3,55.1,30.24,NE,37,0.0,6.0,80,0.00,,---,0.00,VWS V14.01,2013-05-02 22:00:00,
2013-05-02 18:05:00,61.3,55.1,30.24,NE,37,0.0,2.0,80,0.00,,---,0.00,VWS V14.01,2013-05-02 22:05:00,
2013-05-02 18:10:00,61.2,54.6,30.24,NE,37,0.0,2.0,79,0.00,,---,0.00,VWS V14.01,2013-05-02 22:10:00,
2013-05-02 18:15:00,61.2,54.6,30.24,NE,37,0.0,2.0,79,0.00,,---,0.00,VWS V14.01,2013-05-02 22:15:00,
2013-05-02 18:20:00,61.0,54.5,30.24,North,2,1.0,7.0,79,0.00,,---,0.00,VWS V14.01,2013-05-02 22:20:00,
2013-05-02 18:25:00,61.0,54.8,30.24,North,355,2.0,7.0,80,0.00,,---,0.00,VWS V14.01,2013-05-02 22:25:00,
2013-05-02 18:30:00,60.9,54.7,30.24,North,355,0.0,7.0,80,0.00,,---,0.00,VWS V14.01,2013-05-02 22:30:00,
2013-05-02 18:35:00,60.9,54.7,30.24,North,355,0.0,0.0,80,0.00,,---,0.00,VWS V14.01,2013-05-02 22:35:00,
2013-05-02 18:40:00,60.7,54.5,30.24,North,355,0.0,0.0,80,0.00,,---,0.00,VWS V14.01,2013-05-02 22:40:00,
2013-05-02 18:45:00,60.7,54.5,30.23,North,355,0.0,0.0,80,0.00,,---,0.00,VWS V14.01,2013-05-02 22:45:00,
2013-05-02 18:50:00,60.5,54.3,30.23,North,355,0.0,1.0,80,0.00,,---,0.00,VWS V14.01,2013-05-02 22:50:00,
2013-05-02 18:55:00,60.5,54.7,30.23,North,355,0.0,1.0,81,0.00,,---,0.00,VWS V14.01,2013-05-02 22:55:00,
2013-05-02 19:00:00,60.4,54.5,30.23,North,355,0.0,1.0,81,0.00,,---,0.00,VWS V14.01,2013-05-02 23:00:00,
2013-05-02 19:05:00,60.4,54.5,30.23,North,355,0.0,0.0,81,0.00,,---,0.00,VWS V14.01,2013-05-02 23:05:00,
2013-05-02 19:10:00,60.4,54.9,30.23,North,355,0.0,0.0,82,0.00,,---,0.00,VWS V14.01,2013-05-02 23:10:00,
2013-05-02 19:15:00,60.2,54.7,30.23,North,355,0.0,0.0,82,0.00,,---,0.00,VWS V14.01,2013-05-02 23:15:00,
2013-05-02 19:20:00,60.2,54.7,30.23,North,355,3.0,3.0,82,0.00,,---,0.00,VWS V14.01,2013-05-02 23:20:00,
2013-05-02 19:25:00,60.1,54.6,30.23,North,353,0.0,4.0,82,0.00,,---,0.00,VWS V14.01,2013-05-02 23:25:00,
2013-05-02 19:30:00,60.1,54.6,30.23,North,353,0.0,4.0,82,0.00,,---,0.00,VWS V14.01,2013-05-02 23:30:00,
2013-05-02 19:35:00,60.1,54.6,30.23,North,353,0.0,0.0,82,0.00,,---,0.00,VWS V14.01,2013-05-02 23:35:00,
2013-05-02 19:40:00,59.9,54.7,30.23,North,353,0.0,1.0,83,0.00,,---,0.00,VWS V14.01,2013-05-02 23:40:00,
2013-05-02 19:45:00,59.9,54.7,30.24,North,353,0.0,1.0,83,0.00,,---,0.00,VWS V14.01,2013-05-02 23:45:00,
2013-05-02 19:50:00,59.9,54.7,30.24,North,353,0.0,0.0,83,0.00,,---,0.00,VWS V14.01,2013-05-02 23:50:00,
2013-05-02 19:55:00,59.8,54.6,30.24,North,353,0.0,0.0,83,0.00,,---,0.00,VWS V14.01,2013-05-02 23:55:00,
2013-05-02 20:00:00,59.8,54.6,30.24,North,353,0.0,0.0,83,0.00,,---,0.00,VWS V14.01,2013-05-03 00:00:00,
2013-05-02 20:05:00,59.6,54.8,30.24,North,353,0.0,0.0,84,0.00,,---,0.00,VWS V14.01,2013-05-03 00:05:00,
2013-05-02 20:10:00,59.6,54.8,30.24,North,353,0.0,0.0,84,0.00,,---,0.00,VWS V14.01,2013-05-03 00:10:00,
2013-05-02 20:15:00,59.5,54.7,30.24,North,353,0.0,0.0,84,0.00,,---,0.00,VWS V14.01,2013-05-03 00:15:00,
2013-05-02 20:20:00,59.3,54.5,30.24,North,353,0.0,0.0,84,0.00,,---,0.00,VWS V14.01,2013-05-03 00:20:00,
2013-05-02 20:25:00,59.2,54.7,30.25,SW,219,0.0,4.0,85,0.00,,---,0.00,VWS V14.01,2013-05-03 00:25:00,
2013-05-02 20:30:00,59.2,54.7,30.25,West,260,0.0,4.0,85,0.00,,---,0.00,VWS V14.01,2013-05-03 00:30:00,
2013-05-02 20:35:00,59.0,54.5,30.25,West,260,0.0,0.0,85,0.00,,---,0.00,VWS V14.01,2013-05-03 00:35:00,
2013-05-02 20:40:00,59.0,54.5,30.24,West,260,0.0,1.0,85,0.00,,---,0.00,VWS V14.01,2013-05-03 00:40:00,
2013-05-02 20:45:00,59.0,54.5,30.25,West,260,0.0,1.0,85,0.00,,---,0.00,VWS V14.01,2013-05-03 00:45:00,
2013-05-02 20:50:00,58.9,54.4,30.25,West,260,0.0,0.0,85,0.00,,---,0.00,VWS V14.01,2013-05-03 00:50:00,
2013-05-02 20:55:00,58.9,54.4,30.25,West,260,0.0,0.0,85,0.00,,---,0.00,VWS V14.01,2013-05-03 00:55:00,
2013-05-02 21:00:00,58.9,54.4,30.25,West,260,0.0,0.0,85,0.00,,---,0.00,VWS V14.01,2013-05-03 01:00:00,
2013-05-02 21:05:00,58.9,54.4,30.25,SW,222,0.0,3.0,85,0.00,,---,0.00,VWS V14.01,2013-05-03 01:05:00,
2013-05-02 21:10:00,58.9,54.4,30.25,SW,222,0.0,3.0,85,0.00,,---,0.00,VWS V14.01,2013-05-03 01:10:00,
2013-05-02 21:15:00,58.7,54.2,30.25,SW,222,0.0,3.0,85,0.00,,---,0.00,VWS V14.01,2013-05-03 01:15:00,
2013-05-02 21:20:00,58.7,54.5,30.26,SW,222,0.0,0.0,86,0.00,,---,0.00,VWS V14.01,2013-05-03 01:20:00,
2013-05-02 21:25:00,58.6,54.4,30.26,SW,222,0.0,0.0,86,0.00,,---,0.00,VWS V14.01,2013-05-03 01:25:00,
2013-05-02 21:30:00,58.6,54.4,30.26,SW,220,0.0,0.0,86,0.00,,---,0.00,VWS V14.01,2013-05-03 01:30:00,
2013-05-02 21:35:00,58.4,54.2,30.26,SW,220,0.0,0.0,86,0.00,,---,0.00,VWS V14.01,2013-05-03 01:35:00,
2013-05-02 21:40:00,58.4,54.2,30.26,SW,220,0.0,0.0,86,0.00,,---,0.00,VWS V14.01,2013-05-03 01:40:00,
2013-05-02 21:45:00,58.4,54.2,30.26,SW,220,0.0,1.0,86,0.00,,---,0.00,VWS V14.01,2013-05-03 01:45:00,
2013-05-02 21:50:00,58.3,54.1,30.26,SW,220,0.0,0.0,86,0.00,,---,0.00,VWS V14.01,2013-05-03 01:50:00,
2013-05-02 21:55:00,58.3,54.1,30.26,SW,220,0.0,0.0,86,0.00,,---,0.00,VWS V14.01,2013-05-03 01:55:00,
2013-05-02 22:00:00,58.1,53.9,30.26,SSW,211,0.0,4.0,86,0.00,,---,0.00,VWS V14.01,2013-05-03 02:00:00,
2013-05-02 22:05:00,58.1,54.3,30.26,SSW,211,0.0,1.0,87,0.00,,---,0.00,VWS V14.01,2013-05-03 02:05:00,
2013-05-02 22:10:00,58.1,54.3,30.26,SSW,211,0.0,1.0,87,0.00,,---,0.00,VWS V14.01,2013-05-03 02:10:00,
2013-05-02 22:15:00,58.0,54.2,30.26,SSW,211,0.0,1.0,87,0.00,,---,0.00,VWS V14.01,2013-05-03 02:15:00,
2013-05-02 22:20:00,58.0,54.2,30.26,SSW,211,0.0,0.0,87,0.00,,---,0.00,VWS V14.01,2013-05-03 02:20:00,
2013-05-02 22:25:00,58.0,54.2,30.26,SSW,211,0.0,0.0,87,0.00,,---,0.00,VWS V14.01,2013-05-03 02:25:00,
2013-05-02 22:30:00,58.0,54.2,30.26,SSW,211,0.0,0.0,87,0.00,,---,0.00,VWS V14.01,2013-05-03 02:30:00,
2013-05-02 22:35:00,57.8,54.0,30.26,SSW,211,0.0,0.0,87,0.00,,---,0.00,VWS V14.01,2013-05-03 02:35:00,
2013-05-02 22:40:00,57.8,54.0,30.25,SSW,211,0.0,0.0,87,0.00,,---,0.00,VWS V14.01,2013-05-03 02:40:00,
2013-05-02 22:45:00,57.8,54.0,30.25,SSW,211,0.0,0.0,87,0.00,,---,0.00,VWS V14.01,2013-05-03 02:45:00,
2013-05-02 22:50:00,57.6,53.8,30.25,SSW,211,0.0,0.0,87,0.00,,---,0.00,VWS V14.01,2013-05-03 02:50:00,
2013-05-02 22:55:00,57.6,53.8,30.25,SSW,211,0.0,0.0,87,0.00,,---,0.00,VWS V14.01,2013-05-03 02:55:00,
2013-05-02 23:00:00,57.6,53.8,30.25,SSW,211,0.0,0.0,87,0.00,,---,0.00,VWS V14.01,2013-05-03 03:00:00,
2013-05-02 23:05:00,57.6,53.8,30.25,SSW,211,0.0,0.0,87,0.00,,---,0.00,VWS V14.01,2013-05-03 03:05:00,
2013-05-02 23:10:00,57.5,53.7,30.25,SSW,211,0.0,0.0,87,0.00,,---,0.00,VWS V14.01,2013-05-03 03:10:00,
2013-05-02 23:15:00,57.5,53.7,30.25,SSW,211,0.0,0.0,87,0.00,,---,0.00,VWS V14.01,2013-05-03 03:15:00,
2013-05-02 23:20:00,57.5,53.7,30.25,SSW,211,0.0,0.0,87,0.00,,---,0.00,VWS V14.01,2013-05-03 03:20:00,
2013-05-02 23:25:00,57.5,53.7,30.25,SSW,211,0.0,0.0,87,0.00,,---,0.00,VWS V14.01,2013-05-03 03:25:00,
2013-05-02 23:30:00,57.3,53.5,30.24,SSW,211,0.0,0.0,87,0.00,,---,0.00,VWS V14.01,2013-05-03 03:30:00,
2013-05-02 23:35:00,57.3,53.5,30.24,SSW,211,0.0,2.0,87,0.00,,---,0.00,VWS V14.01,2013-05-03 03:35:00,
2013-05-02 23:40:00,57.3,53.5,30.24,SSW,211,0.0,2.0,87,0.00,,---,0.00,VWS V14.01,2013-05-03 03:40:00,
2013-05-02 23:45:00,57.2,53.4,30.24,SSW,211,0.0,2.0,87,0.00,,---,0.00,VWS V14.01,2013-05-03 03:45:00,
2013-05-02 23:50:00,57.2,53.7,30.24,SSW,211,0.0,0.0,88,0.00,,---,0.00,VWS V14.01,2013-05-03 03:50:00,
2013-05-02 23:55:00,57.2,53.7,30.24,SSW,211,0.0,0.0,88,0.00,,---,0.00,VWS V14.01,2013-05-03 03:55:00,